Miscellaneous Local Product
Issued by NWS Hastings, NE

Home |  Current Version |  Previous Version |  Text Only |  Print | Product List |  Glossary On
Versions: 1 2 3 4 5 6 7 8 9 10 11 12 13 14 15 16 17 18 19 20 21 22 23 24 25 26 27 28 29 30 31 32 33 34 35 36 37 38 39 40 41 42 43 44 45 46 47 48 49 50
966
AXUS43 KGID 211203
MISGRI

GID CWA HOURLY WEATHER ROUNDUP
NATIONAL WEATHER SERVICE HASTINGS NE
700 AM CDT FRI JUN 21 2024

NOTE: "FAIR" INDICATES FEW OR NO CLOUDS BELOW 12,000 FEET WITH NO
SIGNIFICANT WEATHER AND/OR OBSTRUCTIONS TO VISIBILITY.

...SOUTH CENTRAL NEBRASKA...

CITY           SKY/WX    TMP DP  RH WIND       PRES   REMARKS
GRAND ISLAND   CLEAR     71  67  87 S9        30.11S
KEARNEY        CLEAR     70  65  84 S13       30.11S
HASTINGS       CLEAR     69  66  90 S7        30.13S
ORD            CLOUDY    66  64  93 CALM      30.09S
YORK           PTCLDY    70  66  88 S10       30.13R
AURORA         CLEAR     70  67  89 S12       30.12S
LEXINGTON      CLEAR     69  66  88 SE7       30.10S
HOLDREGE       CLEAR     68  65  89 S10       30.10S
HEBRON         CLOUDY    74  68  81 S8        30.14S

...NEBRASKA PANHANDLE...

CITY           SKY/WX    TMP DP  RH WIND       PRES   REMARKS
CHADRON        LGT RAIN  60  60 100 NE8       30.11R
ALLIANCE       LGT RAIN  62  62 100 MISG      30.09S
SCOTTSBLUFF    CLOUDY    64  62  93 CALM      30.10R
SIDNEY         CLOUDY    61  60  97 E10       30.07F FOG

...WESTERN AND NORTH CENTRAL NEBRASKA...

CITY           SKY/WX    TMP DP  RH WIND       PRES   REMARKS
VALENTINE      MOCLDY    62  61  96 E6        30.10R
AINSWORTH      MOCLDY    63  62  98 E6        30.10S
ONEILL         CLOUDY    64  64  97 SE10      30.10F
BROKEN BOW     PTCLDY    65  64  97 MISG      30.09F
IMPERIAL       CLEAR     65  62  90 S8        30.05F
NORTH PLATTE   PTCLDY    65  63  93 E7        30.07F
MCCOOK         CLEAR     69  64  84 S7        30.06F

...EASTERN NEBRASKA...

CITY           SKY/WX    TMP DP  RH WIND       PRES   REMARKS
NORFOLK        CLEAR     72  69  90 SE5       30.10S
SO SIOUX CITY  MOSUNNY   69  67  93 E5        30.09F
TEKAMAH        MOSUNNY   75  71  87 S12       30.10F
COLUMBUS       CLEAR     74  68  81 S10       30.12S
ALBION         PTCLDY    67  66  96 CALM      30.11S
OMAHA EPPLEY   PTSUNNY   74  71  91 S10       30.13S
OFFUTT AFB     CLOUDY    74  70  87 S7        30.13R
MILLARD        PTSUNNY   74  70  85 SE5       30.13S
LINCOLN        CLEAR     74  69  85 S8        30.13S
NEBRASKA CITY  CLOUDY    72  70  92 S6        30.15F
BEATRICE       CLOUDY    73  69  86 S7        30.14S
FALLS CITY     CLOUDY    74  69  85 S7        30.15S

...NORTHERN KANSAS...

CITY           SKY/WX    TMP DP  RH WIND       PRES   REMARKS
GOODLAND       PTCLDY    66  63  90 S17       30.07F
HILL CITY      CLEAR     71  66  84 S9G18     30.12S
NORTON         CLEAR     68  63  83 S12G18    30.12F
PHILLIPSBURG   CLEAR     69  62  78 MISG      30.11F
OBERLIN        SUNNY     69  64  82 S14       30.12S
SMITH CENTER   CLOUDY    70  67  88 SE9       30.13F
HAYS           CLEAR     68  65  90 S8        30.14S
RUSSELL        PTCLDY    71  68  90 S12       30.12F
CONCORDIA      PTCLDY    74  70  87 S14       30.14S
SALINA         CLOUDY    76  70  82 S8        30.15S
TOPEKA         PTSUNNY   77  70  79 SE3       30.17R